TimeMST,TemperatureF,Dew PointF,Humidity,Sea Level PressureIn,VisibilityMPH,Wind Direction,Wind SpeedMPH,Gust SpeedMPH,PrecipitationIn,Events,Conditions,WindDirDegrees,DateUTC
12:53 AM,30.0,3.9,33,30.17,10.0,SW,17.3,-,N/A,,Overcast,230,2012-11-13 07:53:00
1:53 AM,28.9,3.9,35,30.15,10.0,WSW,17.3,-,N/A,,Clear,240,2012-11-13 08:53:00
2:53 AM,30.0,1.9,30,30.14,10.0,WSW,25.3,-,N/A,,Partly Cloudy,240,2012-11-13 09:53:00
3:53 AM,30.0,1.0,29,30.15,10.0,SW,25.3,-,N/A,,Mostly Cloudy,230,2012-11-13 10:53:00
4:53 AM,30.9,8.1,38,30.21,10.0,SSW,19.6,-,N/A,,Overcast,210,2012-11-13 11:53:00
5:53 AM,28.9,15.1,56,30.25,10.0,SW,19.6,24.2,N/A,,Overcast,220,2012-11-13 12:53:00
6:53 AM,28.0,16.0,61,30.25,10.0,SW,21.9,-,N/A,,Overcast,230,2012-11-13 13:53:00
7:53 AM,28.9,18.0,64,30.25,10.0,WSW,15.0,-,N/A,,Mostly Cloudy,250,2012-11-13 14:53:00
8:53 AM,33.1,18.0,54,30.23,10.0,WSW,17.3,26.5,N/A,,Clear,250,2012-11-13 15:53:00
9:53 AM,35.1,18.0,50,30.23,10.0,WSW,13.8,-,N/A,,Mostly Cloudy,240,2012-11-13 16:53:00
10:53 AM,39.0,18.0,43,30.17,10.0,West,10.4,16.1,N/A,,Clear,280,2012-11-13 17:53:00
11:53 AM,39.0,18.0,43,30.17,10.0,Variable,5.8,-,N/A,,Partly Cloudy,0,2012-11-13 18:53:00
12:53 PM,39.9,19.0,43,30.16,10.0,Calm,Calm,-,N/A,,Partly Cloudy,0,2012-11-13 19:53:00
1:53 PM,39.0,19.0,45,30.17,10.0,WSW,20.7,-,N/A,,Clear,250,2012-11-13 20:53:00
2:53 PM,39.9,19.0,43,30.17,10.0,West,21.9,27.6,N/A,,Clear,270,2012-11-13 21:53:00
3:53 PM,37.0,19.0,48,30.19,10.0,West,18.4,-,N/A,,Clear,260,2012-11-13 22:53:00
4:53 PM,30.0,18.0,61,30.24,10.0,WSW,12.7,-,N/A,,Clear,240,2012-11-13 23:53:00
5:53 PM,28.9,18.0,64,30.27,10.0,WSW,16.1,-,N/A,,Clear,240,2012-11-14 00:53:00
6:53 PM,30.0,18.0,61,30.27,10.0,SW,20.7,-,N/A,,Clear,230,2012-11-14 01:53:00
7:53 PM,28.9,17.1,61,30.27,10.0,SW,17.3,-,N/A,,Clear,230,2012-11-14 02:53:00
8:53 PM,28.9,18.0,64,30.25,10.0,SW,16.1,-,N/A,,Clear,230,2012-11-14 03:53:00
9:53 PM,27.0,17.1,66,30.26,10.0,West,10.4,-,N/A,,Clear,260,2012-11-14 04:53:00
10:53 PM,30.0,17.1,59,30.19,10.0,SW,12.7,-,N/A,,Clear,220,2012-11-14 05:53:00
11:53 PM,28.0,17.1,63,30.20,10.0,South,8.1,-,N/A,,Clear,190,2012-11-14 06:53:00